Sand Springs William R. Pogue, OK

1:36 AM CDT on September 23, 2017 (GMT -0500)
Sand Springs William R. Pogue

Weather History for KOWP - April, 2014

Change the Weather History Date:

Tuesday, April 29, 2014

  Actual Average (KTUL) Record (KTUL)
Temperature  
Mean Temperature 55 °F -  
Max Temperature 60 °F 75 °F 92 °F (1987)
Min Temperature 49 °F 53 °F 38 °F (1969)
Degree Days  
Heating Degree Days 10    
Growing Degree Days 5 (Base 50)    
Moisture  
Dew Point 36 °F    
Average Humidity 49    
Maximum Humidity 63    
Minimum Humidity 34    
Precipitation  
Precipitation 0.00 in - - ()
Sea Level Pressure  
Sea Level Pressure 29.77 in    
Wind  
Wind Speed 11 mph (WNW)    
Max Wind Speed 17 mph    
Max Gust Speed 30 mph    
Visibility 10 miles    
Events      
Averages and records for this station are not official NWS values.
T = Trace of Precipitation, MM = Missing Value Source: NWS Daily Summary

Daily Weather History Graph

Daily Weather History Graph

Search for Another Location

Airport or City:

Trip Planner

Search our weather history database for the weather conditions in past years. The results will help you decide how hot, cold, wet, or windy it might be!

Date:

Astronomy

Apr. 29, 2014 Rise Set
Actual Time 6:33 AM CDT 8:10 PM CDT
Civil Twilight 6:06 AM CDT 8:37 PM CDT
Nautical Twilight 5:33 AM CDT 9:10 PM CDT
Astronomical Twilight 4:58 AM CDT 9:45 PM CDT
Moon 6:52 AM CDT (4/29) 8:51 PM CDT (4/29)
Length of Visible Light 14h 31m
Length of Day
13h 36m
New Moon, 0% of the Moon is Illuminated
Apr 29
New Moon
May 6
First Quarter
May 14
Full
May 21
Last Quarter
May 28
New

Hourly Weather History & Observations

Time (CDT) Temp. Dew Point Humidity Pressure Visibility Wind Dir Wind Speed Gust Speed Precip Events Conditions
12:15 AM 61.7 °F 32.9 °F 34% 29.66 in 10.0 mi West 11.5 mph 18.4 mph N/A   Clear
12:35 AM 61.3 °F 32.9 °F 34% 29.66 in 10.0 mi WNW 8.1 mph 19.6 mph N/A   Clear
12:55 AM 60.8 °F 32.9 °F 35% 29.66 in 10.0 mi West 10.4 mph 21.9 mph N/A   Clear
1:15 AM 60.3 °F 32.9 °F 36% 29.66 in 10.0 mi WNW 10.4 mph 19.6 mph N/A   Clear
1:35 AM 59.9 °F 33.3 °F 37% 29.66 in 10.0 mi WNW 13.8 mph 21.9 mph N/A   Clear
1:55 AM 59.2 °F 32.9 °F 37% 29.66 in 10.0 mi West 9.2 mph 18.4 mph N/A   Clear
2:15 AM 58.6 °F 32.5 °F 37% 29.66 in 10.0 mi West 12.7 mph 20.7 mph N/A   Clear
2:35 AM 58.1 °F 32.9 °F 39% 29.66 in 10.0 mi West 10.4 mph 21.9 mph N/A   Clear
2:55 AM 57.2 °F 33.3 °F 40% 29.65 in 10.0 mi West 9.2 mph 17.3 mph N/A   Clear
3:15 AM 57.2 °F 33.1 °F 40% 29.64 in 10.0 mi West 6.9 mph 17.3 mph N/A   Clear
3:35 AM 56.7 °F 33.4 °F 42% 29.64 in 10.0 mi West 9.2 mph 16.1 mph N/A   Clear
4:15 AM 55.4 °F 34.2 °F 45% 29.64 in 10.0 mi West 8.1 mph - N/A   Clear
4:35 AM 55.4 °F 34.7 °F 46% 29.65 in 10.0 mi West 9.2 mph 18.4 mph N/A   Clear
4:55 AM 55.9 °F 33.8 °F 43% 29.66 in 10.0 mi West 10.4 mph 23.0 mph N/A   Clear
5:15 AM 55.4 °F 34.7 °F 46% 29.66 in 10.0 mi West 9.2 mph 18.4 mph N/A   Clear
5:35 AM 55.0 °F 34.7 °F 46% 29.66 in 10.0 mi West 10.4 mph 18.4 mph N/A   Clear
5:55 AM 55.4 °F 34.2 °F 45% 29.66 in 10.0 mi West 16.1 mph 23.0 mph N/A   Clear
6:15 AM 55.4 °F 34.2 °F 45% 29.66 in 10.0 mi West 16.1 mph 21.9 mph N/A   Clear
6:35 AM 54.7 °F 34.7 °F 47% 29.66 in 10.0 mi WNW 11.5 mph 18.4 mph N/A   Clear
6:55 AM 54.0 °F 34.9 °F 49% 29.66 in 10.0 mi West 10.4 mph - N/A   Clear
7:15 AM 54.0 °F 35.8 °F 50% 29.67 in 10.0 mi West 9.2 mph - N/A   Clear
7:35 AM 55.4 °F 35.6 °F 47% 29.67 in 10.0 mi West 11.5 mph 20.7 mph N/A   Clear
7:55 AM 54.9 °F 36.0 °F 49% 29.68 in 10.0 mi WNW 9.2 mph - N/A   Mostly Cloudy
8:15 AM 54.7 °F 36.7 °F 51% 29.69 in 10.0 mi WNW 8.1 mph 16.1 mph N/A   Overcast
8:35 AM 54.5 °F 36.1 °F 50% 29.69 in 10.0 mi WNW 12.7 mph 24.2 mph N/A   Overcast
8:55 AM 54.9 °F 35.8 °F 49% 29.70 in 10.0 mi WNW 11.5 mph 24.2 mph N/A   Overcast
9:15 AM 55.2 °F 34.5 °F 46% 29.71 in 10.0 mi WNW 17.3 mph 29.9 mph N/A   Mostly Cloudy
9:35 AM 54.1 °F 35.1 °F 49% 29.72 in 10.0 mi WNW 17.3 mph 24.2 mph N/A   Overcast
9:55 AM 54.0 °F 35.6 °F 50% 29.73 in 10.0 mi West 15.0 mph 23.0 mph N/A   Overcast
10:15 AM 54.0 °F 35.2 °F 49% 29.73 in 10.0 mi West 16.1 mph 26.5 mph N/A   Overcast
10:35 AM 53.8 °F 35.8 °F 51% 29.74 in 10.0 mi WNW 17.3 mph 26.5 mph N/A   Overcast
10:55 AM 53.2 °F 36.3 °F 53% 29.74 in 10.0 mi WNW 16.1 mph 28.8 mph N/A   Overcast
11:15 AM 52.9 °F 36.7 °F 54% 29.75 in 10.0 mi West 12.7 mph 20.7 mph N/A   Overcast
11:35 AM 53.4 °F 37.0 °F 54% 29.75 in 10.0 mi West 17.3 mph 25.3 mph N/A   Overcast
11:55 AM 53.6 °F 36.7 °F 53% 29.77 in 10.0 mi West 16.1 mph 25.3 mph N/A   Overcast
12:15 PM 54.1 °F 37.2 °F 53% 29.77 in 10.0 mi WNW 11.5 mph 23.0 mph N/A   Overcast
12:35 PM 54.7 °F 36.9 °F 51% 29.77 in 10.0 mi WNW 13.8 mph 23.0 mph N/A   Overcast
12:55 PM 55.0 °F 37.2 °F 51% 29.78 in 10.0 mi West 12.7 mph 21.9 mph N/A   Overcast
1:15 PM 55.4 °F 37.4 °F 51% 29.78 in 10.0 mi WNW 16.1 mph 24.2 mph N/A   Overcast
1:35 PM 54.5 °F 37.4 °F 52% 29.79 in 10.0 mi WNW 11.5 mph 25.3 mph N/A   Overcast
1:55 PM 53.8 °F 37.6 °F 54% 29.79 in 10.0 mi West 10.4 mph 23.0 mph N/A   Overcast
2:15 PM 53.6 °F 38.1 °F 56% 29.79 in 10.0 mi West 9.2 mph 18.4 mph N/A   Overcast
2:35 PM 54.0 °F 38.1 °F 55% 29.80 in 10.0 mi WNW 13.8 mph 19.6 mph N/A   Overcast
2:55 PM 55.4 °F 38.7 °F 53% 29.80 in 10.0 mi WNW 13.8 mph 24.2 mph N/A   Overcast
3:15 PM 55.0 °F 38.1 °F 53% 29.80 in 10.0 mi West 9.2 mph 18.4 mph N/A   Overcast
3:35 PM 54.7 °F 37.8 °F 53% 29.81 in 10.0 mi WNW 11.5 mph 16.1 mph N/A   Overcast
3:55 PM 55.0 °F 37.9 °F 53% 29.81 in 10.0 mi WNW 16.1 mph 20.7 mph N/A   Overcast
4:15 PM 55.6 °F 38.3 °F 52% 29.81 in 10.0 mi NW 10.4 mph 18.4 mph N/A   Overcast
4:35 PM 55.0 °F 37.8 °F 52% 29.82 in 10.0 mi WNW 8.1 mph 20.7 mph N/A   Overcast
4:55 PM 55.4 °F 38.3 °F 53% 29.82 in 10.0 mi WNW 9.2 mph - N/A   Overcast
5:15 PM 55.4 °F 37.6 °F 51% 29.83 in 10.0 mi WNW 10.4 mph 18.4 mph N/A   Overcast
5:35 PM 55.4 °F 37.9 °F 52% 29.84 in 10.0 mi NW 10.4 mph - N/A   Overcast
5:55 PM 55.2 °F 37.6 °F 52% 29.85 in 10.0 mi NW 9.2 mph 19.6 mph N/A   Overcast
6:15 PM 55.2 °F 37.2 °F 51% 29.86 in 10.0 mi WNW 9.2 mph 16.1 mph N/A   Overcast
6:35 PM 55.2 °F 37.4 °F 51% 29.86 in 10.0 mi NW 10.4 mph 17.3 mph N/A   Overcast
6:55 PM 55.0 °F 37.4 °F 51% 29.86 in 10.0 mi NW 10.4 mph - N/A   Overcast
7:15 PM 55.0 °F 36.3 °F 49% 29.87 in 10.0 mi WNW 8.1 mph 16.1 mph N/A   Overcast
7:35 PM 54.7 °F 36.7 °F 51% 29.88 in 10.0 mi WNW 5.8 mph - N/A   Overcast
7:55 PM 54.5 °F 36.7 °F 51% 29.88 in 10.0 mi NW 8.1 mph - N/A   Overcast
8:15 PM 54.5 °F 36.5 °F 51% 29.89 in 10.0 mi NW 8.1 mph - N/A   Overcast
8:35 PM 54.1 °F 36.3 °F 51% 29.90 in 10.0 mi NW 5.8 mph - N/A   Overcast
8:55 PM 53.6 °F 36.5 °F 52% 29.91 in 10.0 mi NNW 6.9 mph - N/A   Overcast
9:15 PM 52.9 °F 36.7 °F 54% 29.91 in 10.0 mi NW 5.8 mph - N/A   Overcast
9:35 PM 52.7 °F 36.5 °F 54% 29.92 in 10.0 mi NW 4.6 mph - N/A   Overcast
9:55 PM 52.3 °F 36.5 °F 55% 29.93 in 10.0 mi NNW 5.8 mph - N/A   Overcast
10:15 PM 52.0 °F 36.7 °F 56% 29.94 in 10.0 mi NNW 3.5 mph - N/A   Overcast
10:35 PM 51.8 °F 37.0 °F 57% 29.94 in 10.0 mi NNW 3.5 mph - N/A   Overcast
10:55 PM 51.3 °F 37.4 °F 59% 29.94 in 10.0 mi Calm Calm - N/A   Overcast
11:15 PM 50.7 °F 37.4 °F 60% 29.95 in 10.0 mi NNW 3.5 mph - N/A   Mostly Cloudy
11:35 PM 49.6 °F 37.4 °F 63% 29.94 in 10.0 mi NNW 5.8 mph - N/A   Mostly Cloudy
11:55 PM 50.2 °F 37.6 °F 62% 29.95 in 10.0 mi NW 4.6 mph - N/A   Overcast